BAW44FG EGLL-KJFK

Flight info

Callsign BAW44FG
Flight time N/A
Altitude 34000
Route CPT5J CPT L9 BUCGO DCT FELCA DCT OFSOX DCT BANBA DCT TOBOR/M083F360 DCT 53N020W 53N030W 5230N04000W 50N050W DCT ELSIR/N0466F360 N402C ALLEX DCT ENE PARCH3
Aircraft B77W/H-SDE1E2E3FGHIJ2J3J4J5M1RWXY/LB1D1

Departure

Time 2026-05-06 19:58
Airport London Heathrow Airport (EGLL)

Arrival

Time N/A
Airport John F. Kennedy International Airport (KJFK)
Time Latitude Longitude Altitude Speed Heading
2026-05-06 19:31 51.47133 -0.48007 94 ft 0 kts 269°
2026-05-06 19:48 51.47133 -0.48006 93 ft 2 kts 269°
2026-05-06 19:48 51.47134 -0.47981 90 ft 2 kts 266°
2026-05-06 19:48 51.47136 -0.47954 91 ft 2 kts 259°
2026-05-06 19:49 51.47140 -0.47929 93 ft 2 kts 249°
2026-05-06 19:49 51.47147 -0.47905 91 ft 2 kts 234°
2026-05-06 19:49 51.47158 -0.47885 92 ft 2 kts 213°
2026-05-06 19:49 51.47173 -0.47874 92 ft 2 kts 193°
2026-05-06 19:50 51.47187 -0.47870 92 ft 1 kts 184°
2026-05-06 19:50 51.47190 -0.47869 92 ft 0 kts 183°
2026-05-06 19:51 51.47149 -0.47874 93 ft 17 kts 183°
2026-05-06 19:51 51.46950 -0.47877 89 ft 36 kts 179°
2026-05-06 19:51 51.46777 -0.47896 93 ft 19 kts 203°
2026-05-06 19:52 51.46741 -0.48024 89 ft 16 kts 269°
2026-05-06 19:52 51.46742 -0.48239 90 ft 22 kts 267°
2026-05-06 19:52 51.46740 -0.48486 90 ft 22 kts 270°
2026-05-06 19:52 51.46713 -0.48710 94 ft 15 kts 231°
2026-05-06 19:53 51.46631 -0.48757 93 ft 2 kts 195°
2026-05-06 19:53 51.46630 -0.48757 93 ft 0 kts 195°
2026-05-06 19:54 51.46612 -0.48765 94 ft 7 kts 194°
2026-05-06 19:54 51.46537 -0.48784 93 ft 1 kts 186°
2026-05-06 19:54 51.46521 -0.48773 93 ft 4 kts 152°
2026-05-06 19:54 51.46511 -0.48761 93 ft 0 kts 139°
2026-05-06 19:56 51.46504 -0.48751 94 ft 6 kts 139°
2026-05-06 19:56 51.46478 -0.48673 94 ft 2 kts 95°
2026-05-06 19:56 51.46478 -0.48639 93 ft 2 kts 90°
2026-05-06 19:57 51.46478 -0.48638 93 ft 0 kts 90°
2026-05-06 19:57 51.46479 -0.48526 91 ft 22 kts 89°
2026-05-06 19:58 51.46482 -0.47837 91 ft 107 kts 89°
2026-05-06 19:58 51.46509 -0.46148 93 ft 194 kts 84°
2026-05-06 19:58 51.46557 -0.43968 898 ft 178 kts 92°
2026-05-06 19:58 51.46385 -0.42028 1201 ft 179 kts 99°
2026-05-06 19:59 51.46008 -0.40071 1369 ft 193 kts 112°
2026-05-06 19:59 51.45235 -0.38188 1585 ft 215 kts 134°
2026-05-06 19:59 51.43902 -0.36866 1800 ft 239 kts 163°
2026-05-06 19:59 51.42216 -0.36794 2247 ft 249 kts 195°
2026-05-06 20:00 51.41163 -0.37523 2655 ft 251 kts 215°
2026-05-06 20:00 51.41134 -0.37554 2663 ft 252 kts 216°
2026-05-06 20:00 51.40487 -0.38429 2956 ft 254 kts 230°
2026-05-06 20:01 51.39692 -0.40539 3504 ft 255 kts 255°
2026-05-06 20:01 51.39551 -0.43349 4192 ft 254 kts 282°
2026-05-06 20:01 51.39957 -0.46103 4839 ft 257 kts 285°
2026-05-06 20:01 51.40392 -0.48889 5626 ft 256 kts 284°
2026-05-06 20:02 51.40797 -0.51652 6304 ft 261 kts 284°
2026-05-06 20:02 51.41189 -0.54486 7030 ft 261 kts 283°
2026-05-06 20:02 51.41565 -0.57350 7682 ft 264 kts 283°
2026-05-06 20:02 51.41931 -0.60241 8339 ft 268 kts 282°
2026-05-06 20:03 51.42295 -0.63189 9004 ft 270 kts 282°
2026-05-06 20:03 51.42654 -0.66150 9655 ft 274 kts 282°
2026-05-06 20:03 51.43015 -0.69170 10300 ft 275 kts 282°
2026-05-06 20:03 51.43373 -0.72182 10912 ft 278 kts 282°
2026-05-06 20:04 51.43739 -0.75264 11448 ft 285 kts 282°
2026-05-06 20:04 51.44133 -0.78490 11617 ft 305 kts 282°
2026-05-06 20:04 51.44552 -0.81905 11990 ft 317 kts 282°
2026-05-06 20:04 51.44980 -0.85410 12579 ft 324 kts 282°
2026-05-06 20:05 51.45412 -0.88989 13231 ft 329 kts 281°
2026-05-06 20:05 51.45831 -0.92615 13942 ft 332 kts 281°
2026-05-06 20:05 51.46248 -0.96280 14596 ft 335 kts 281°
2026-05-06 20:05 51.46668 -0.99965 15240 ft 338 kts 281°
2026-05-06 20:06 51.47095 -1.03699 15887 ft 341 kts 281°
2026-05-06 20:06 51.47530 -1.07458 16539 ft 344 kts 281°
2026-05-06 20:06 51.47969 -1.11250 17192 ft 347 kts 281°
2026-05-06 20:06 51.48409 -1.15079 17838 ft 351 kts 281°
2026-05-06 20:07 51.48855 -1.18909 18446 ft 352 kts 283°
2026-05-06 20:07 51.49753 -1.22554 18849 ft 357 kts 303°
2026-05-06 20:07 51.51412 -1.25538 19349 ft 360 kts 316°
2026-05-06 20:07 51.53278 -1.28267 19870 ft 363 kts 317°
2026-05-06 20:08 51.55154 -1.31012 20452 ft 365 kts 316°
2026-05-06 20:08 51.56758 -1.34137 20862 ft 366 kts 295°
2026-05-06 20:08 51.57475 -1.38071 21293 ft 370 kts 277°
2026-05-06 20:08 51.57693 -1.42201 21876 ft 372 kts 273°
2026-05-06 20:09 51.57811 -1.46360 22457 ft 374 kts 273°
2026-05-06 20:09 51.57968 -1.50552 23006 ft 377 kts 274°
2026-05-06 20:09 51.58199 -1.54772 23537 ft 381 kts 276°
2026-05-06 20:09 51.58498 -1.59009 23999 ft 383 kts 277°
2026-05-06 20:10 51.58848 -1.63267 24480 ft 385 kts 278°
2026-05-06 20:10 51.59232 -1.67535 24952 ft 387 kts 278°
2026-05-06 20:10 51.59633 -1.71775 25418 ft 389 kts 278°
2026-05-06 20:10 51.60051 -1.76086 25850 ft 392 kts 278°
2026-05-06 20:11 51.60476 -1.80433 26296 ft 394 kts 279°
2026-05-06 20:11 51.60903 -1.84790 26741 ft 396 kts 278°
2026-05-06 20:11 51.61333 -1.89189 27180 ft 398 kts 278°
2026-05-06 20:11 51.61762 -1.93598 27613 ft 401 kts 278°
2026-05-06 20:12 51.62194 -1.98051 28031 ft 403 kts 278°
2026-05-06 20:12 51.62625 -2.02522 28453 ft 405 kts 278°
2026-05-06 20:12 51.63056 -2.07019 28862 ft 407 kts 278°
2026-05-06 20:12 51.63487 -2.11528 29257 ft 410 kts 278°
2026-05-06 20:13 51.63773 -2.14539 29516 ft 411 kts 278°
2026-05-06 20:13 51.64353 -2.20659 29261 ft 425 kts 278°
2026-05-06 20:13 51.64802 -2.25428 28978 ft 437 kts 278°
2026-05-06 20:13 51.65257 -2.30268 29274 ft 437 kts 278°
2026-05-06 20:14 51.65708 -2.35100 29634 ft 437 kts 278°
2026-05-06 20:14 51.66014 -2.38398 29727 ft 440 kts 278°
2026-05-06 20:14 51.66462 -2.43224 29868 ft 443 kts 278°
2026-05-06 20:14 51.66916 -2.48143 30123 ft 444 kts 278°
2026-05-06 20:15 51.67368 -2.53068 30365 ft 445 kts 278°
2026-05-06 20:15 51.67819 -2.58005 30579 ft 446 kts 278°
2026-05-06 20:15 51.68423 -2.64652 30767 ft 450 kts 278°
2026-05-06 20:15 51.68724 -2.67973 30828 ft 452 kts 278°
2026-05-06 20:16 51.69176 -2.72999 30958 ft 455 kts 278°
2026-05-06 20:16 51.69628 -2.78042 31236 ft 454 kts 278°
2026-05-06 20:16 51.70077 -2.83078 31513 ft 454 kts 278°
2026-05-06 20:16 51.70525 -2.88124 31710 ft 455 kts 278°
2026-05-06 20:17 51.70971 -2.93185 31860 ft 458 kts 278°
2026-05-06 20:17 51.71418 -2.98274 31982 ft 460 kts 278°
2026-05-06 20:17 51.71864 -3.03377 32133 ft 461 kts 278°
2026-05-06 20:17 51.72310 -3.08514 32288 ft 462 kts 278°
2026-05-06 20:18 51.72756 -3.13666 32423 ft 464 kts 278°
2026-05-06 20:18 51.73200 -3.18827 32547 ft 465 kts 278°
2026-05-06 20:18 51.73643 -3.24011 32672 ft 467 kts 278°
2026-05-06 20:18 51.74086 -3.29213 32790 ft 468 kts 278°
2026-05-06 20:19 51.74968 -3.39654 32966 ft 471 kts 278°
2026-05-06 20:19 51.75401 -3.44836 33071 ft 472 kts 278°
2026-05-06 20:19 51.75839 -3.50094 33236 ft 472 kts 278°
2026-05-06 20:20 51.76272 -3.55330 33581 ft 468 kts 278°
2026-05-06 20:20 51.76701 -3.60541 33733 ft 468 kts 278°
2026-05-06 20:20 51.77559 -3.71039 33814 ft 473 kts 278°
2026-05-06 20:21 51.77981 -3.76252 33921 ft 474 kts 278°
2026-05-06 20:21 51.78406 -3.81531 33973 ft 475 kts 278°
2026-05-06 20:21 51.79254 -3.92163 34005 ft 479 kts 278°
2026-05-06 20:22 51.80099 -4.02866 34008 ft 481 kts 278°
2026-05-06 20:22 51.80937 -4.13628 34006 ft 483 kts 278°
2026-05-06 20:23 51.81767 -4.24406 34000 ft 483 kts 278°
2026-05-06 20:23 51.82586 -4.35190 34000 ft 483 kts 278°
2026-05-06 20:24 51.83395 -4.45960 34000 ft 482 kts 278°
2026-05-06 20:24 51.84188 -4.56652 34001 ft 481 kts 278°
2026-05-06 20:25 51.84975 -4.67394 34002 ft 480 kts 278°
2026-05-06 20:25 51.85750 -4.78122 34008 ft 480 kts 278°
2026-05-06 20:26 51.86519 -4.88887 34009 ft 482 kts 278°
2026-05-06 20:26 51.87280 -4.99696 34007 ft 483 kts 278°
2026-05-06 20:27 51.88027 -5.10458 34009 ft 484 kts 278°
2026-05-06 20:27 51.88771 -5.21310 34008 ft 485 kts 278°
2026-05-06 20:28 51.89506 -5.32179 34007 ft 486 kts 278°
2026-05-06 20:28 51.90232 -5.43066 34008 ft 486 kts 278°
2026-05-06 20:29 51.90948 -5.53962 34007 ft 487 kts 278°
2026-05-06 20:29 51.91649 -5.64795 34016 ft 487 kts 278°
2026-05-06 20:30 51.92691 -5.81174 34019 ft 488 kts 278°
2026-05-06 20:31 51.93370 -5.92056 34014 ft 488 kts 278°
2026-05-06 20:31 51.94045 -6.03020 34014 ft 489 kts 278°
2026-05-06 20:32 51.94710 -6.13996 34009 ft 489 kts 278°
2026-05-06 20:32 51.95375 -6.24991 34006 ft 490 kts 279°
2026-05-06 20:33 51.96361 -6.35935 34014 ft 490 kts 282°
2026-05-06 20:33 51.97520 -6.46853 34006 ft 491 kts 282°
2026-05-06 20:34 51.98651 -6.57797 34007 ft 493 kts 282°
2026-05-06 20:34 51.99726 -6.68710 34004 ft 493 kts 281°
2026-05-06 20:35 52.00786 -6.79748 33993 ft 494 kts 281°
2026-05-06 20:35 52.01832 -6.90786 34001 ft 494 kts 281°
2026-05-06 20:36 52.02870 -7.01825 34005 ft 495 kts 281°
2026-05-06 20:36 52.03894 -7.12807 33994 ft 495 kts 281°
2026-05-06 20:37 52.04913 -7.23851 33997 ft 494 kts 281°
2026-05-06 20:37 52.05922 -7.34904 34000 ft 494 kts 281°
2026-05-06 20:38 52.06922 -7.45979 33994 ft 494 kts 281°
2026-05-06 20:38 52.07903 -7.56968 33995 ft 494 kts 281°
2026-05-06 20:39 52.08881 -7.68029 33999 ft 494 kts 281°
2026-05-06 20:39 52.09847 -7.79088 34000 ft 494 kts 281°
2026-05-06 20:40 52.10804 -7.90168 33993 ft 495 kts 280°
2026-05-06 20:40 52.11752 -8.01271 33993 ft 495 kts 280°
2026-05-06 20:41 52.12691 -8.12378 33992 ft 495 kts 280°
2026-05-06 20:41 52.13617 -8.23480 33997 ft 495 kts 280°
2026-05-06 20:42 52.14530 -8.34538 33989 ft 495 kts 280°
2026-05-06 20:42 52.15435 -8.45646 33992 ft 494 kts 280°
2026-05-06 20:43 52.16329 -8.56743 33994 ft 494 kts 279°
2026-05-06 20:43 52.17213 -8.67848 33989 ft 494 kts 279°
2026-05-06 20:44 52.18084 -8.78926 33988 ft 494 kts 279°
2026-05-06 20:44 52.18947 -8.90042 33997 ft 493 kts 279°
2026-05-06 20:45 52.19799 -9.01153 33998 ft 493 kts 279°
2026-05-06 20:45 52.20639 -9.12243 33997 ft 493 kts 279°
2026-05-06 20:46 52.21468 -9.23334 34001 ft 493 kts 279°
2026-05-06 20:46 52.22287 -9.34434 33999 ft 493 kts 279°
2026-05-06 20:47 52.23089 -9.45450 33996 ft 492 kts 278°
2026-05-06 20:47 52.23888 -9.56570 33997 ft 492 kts 278°
2026-05-06 20:48 52.24676 -9.67673 34000 ft 492 kts 278°
2026-05-06 20:48 52.25452 -9.78774 33994 ft 492 kts 278°
2026-05-06 20:49 52.26218 -9.89883 33999 ft 492 kts 278°
2026-05-06 20:49 52.26969 -10.00919 33998 ft 492 kts 278°
2026-05-06 20:50 52.27714 -10.12029 33994 ft 492 kts 278°
2026-05-06 20:50 52.28448 -10.23146 33996 ft 492 kts 278°
2026-05-06 20:51 52.29173 -10.34265 33992 ft 492 kts 277°
2026-05-06 20:51 52.29886 -10.45381 33997 ft 492 kts 277°
2026-05-06 20:52 52.30589 -10.56495 33999 ft 491 kts 277°
2026-05-06 20:52 52.31276 -10.67540 33995 ft 491 kts 277°
2026-05-06 20:53 52.31957 -10.78644 33991 ft 491 kts 277°
2026-05-06 20:53 52.32627 -10.89754 33996 ft 490 kts 277°
2026-05-06 20:54 52.33287 -11.00859 33991 ft 490 kts 277°
2026-05-06 20:54 52.33932 -11.11894 33995 ft 490 kts 277°
2026-05-06 20:55 52.34568 -11.22966 33999 ft 489 kts 276°
2026-05-06 20:55 52.35196 -11.34063 33995 ft 489 kts 276°
2026-05-06 20:56 52.35811 -11.45130 33990 ft 489 kts 276°
2026-05-06 20:56 52.36416 -11.56204 33991 ft 488 kts 276°
2026-05-06 20:57 52.37011 -11.67278 33999 ft 488 kts 276°
2026-05-06 20:57 52.37591 -11.78283 33987 ft 488 kts 276°
2026-05-06 20:58 52.38164 -11.89338 33996 ft 487 kts 276°
2026-05-06 20:58 52.38726 -12.00393 33993 ft 487 kts 276°
2026-05-06 20:59 52.39278 -12.11455 33998 ft 487 kts 276°
2026-05-06 20:59 52.39819 -12.22511 33990 ft 487 kts 275°
2026-05-06 21:00 52.40348 -12.33511 33985 ft 487 kts 275°
2026-05-06 21:00 52.40869 -12.44581 33989 ft 487 kts 275°
2026-05-06 21:01 52.41378 -12.55629 33982 ft 486 kts 275°
2026-05-06 21:01 52.41795 -12.64829 33988 ft 486 kts 275°
2026-05-06 21:02 52.42285 -12.75873 33981 ft 486 kts 275°
2026-05-06 21:02 52.42766 -12.86935 33982 ft 486 kts 275°
2026-05-06 21:03 52.43235 -12.97968 33987 ft 485 kts 274°
2026-05-06 21:03 52.43694 -13.09000 33976 ft 485 kts 274°
2026-05-06 21:04 52.44142 -13.20020 33977 ft 485 kts 274°
2026-05-06 21:04 52.44577 -13.30985 33975 ft 485 kts 274°
2026-05-06 21:05 52.45005 -13.42014 33984 ft 485 kts 274°
2026-05-06 21:05 52.45423 -13.53062 33982 ft 485 kts 274°
2026-05-06 21:06 52.45830 -13.64099 33972 ft 485 kts 274°
2026-05-06 21:06 52.46228 -13.75142 33985 ft 485 kts 273°
2026-05-06 21:07 52.46615 -13.86187 33979 ft 485 kts 273°
2026-05-06 21:07 52.46988 -13.97140 33979 ft 484 kts 273°
2026-05-06 21:08 52.47353 -14.08140 33974 ft 484 kts 273°
2026-05-06 21:08 52.47709 -14.19182 33978 ft 484 kts 272°
2026-05-06 21:09 52.48054 -14.30201 33975 ft 483 kts 272°
2026-05-06 21:09 52.48388 -14.41223 33979 ft 483 kts 272°
2026-05-06 21:10 52.48711 -14.52210 33969 ft 482 kts 272°
2026-05-06 21:10 52.49023 -14.63143 33972 ft 482 kts 272°
2026-05-06 21:11 52.49326 -14.74130 33968 ft 481 kts 271°
2026-05-06 21:11 52.49619 -14.85112 33977 ft 481 kts 271°
2026-05-06 21:12 52.49903 -14.96081 33971 ft 480 kts 271°
2026-05-06 21:12 52.50596 -15.06948 33971 ft 481 kts 280°
2026-05-06 21:13 52.52000 -15.17692 33971 ft 481 kts 281°
2026-05-06 21:13 52.53407 -15.28433 33969 ft 481 kts 280°
2026-05-06 21:14 52.54723 -15.39123 33972 ft 481 kts 279°
2026-05-06 21:14 52.56002 -15.49918 33967 ft 481 kts 279°
2026-05-06 21:15 52.57265 -15.60737 33966 ft 481 kts 279°
2026-05-06 21:15 52.58519 -15.71541 33970 ft 481 kts 279°
2026-05-06 21:16 52.59767 -15.82355 33969 ft 481 kts 279°
2026-05-06 21:16 52.60997 -15.93103 33966 ft 480 kts 278°
2026-05-06 21:17 52.62223 -16.03906 33966 ft 480 kts 278°
2026-05-06 21:17 52.63440 -16.14725 33963 ft 480 kts 278°
2026-05-06 21:18 52.64643 -16.25516 33965 ft 479 kts 278°
2026-05-06 21:18 52.65836 -16.36311 33962 ft 478 kts 278°
2026-05-06 21:19 52.67017 -16.47090 33966 ft 478 kts 277°
2026-05-06 21:19 52.68186 -16.57856 33965 ft 477 kts 277°
2026-05-06 21:20 52.69339 -16.68563 33963 ft 477 kts 277°
2026-05-06 21:20 52.70489 -16.79341 33960 ft 477 kts 277°
2026-05-06 21:21 52.71627 -16.90112 33961 ft 476 kts 277°
2026-05-06 21:21 52.72756 -17.00886 33965 ft 476 kts 277°
2026-05-06 21:22 52.73875 -17.11670 33956 ft 476 kts 276°
2026-05-06 21:22 52.74984 -17.22451 33962 ft 476 kts 276°
2026-05-06 21:23 52.76076 -17.33170 33959 ft 476 kts 276°
2026-05-06 21:23 52.77165 -17.43963 33961 ft 476 kts 276°
2026-05-06 21:24 52.78245 -17.54769 33962 ft 477 kts 276°
2026-05-06 21:24 52.79315 -17.65574 33965 ft 476 kts 276°
2026-05-06 21:25 52.80376 -17.76387 33961 ft 476 kts 275°
2026-05-06 21:25 52.81425 -17.87198 33960 ft 476 kts 275°
2026-05-06 21:26 52.82465 -17.98009 33966 ft 476 kts 275°
2026-05-06 21:26 52.83495 -18.08828 33959 ft 476 kts 275°
2026-05-06 21:27 52.84513 -18.19634 33961 ft 475 kts 275°
2026-05-06 21:27 52.85515 -18.30368 33970 ft 475 kts 275°
2026-05-06 21:28 52.86512 -18.41166 33966 ft 474 kts 274°
2026-05-06 21:28 52.87498 -18.51958 33964 ft 474 kts 274°
2026-05-06 21:29 52.88474 -18.62751 33968 ft 473 kts 274°
2026-05-06 21:29 52.89438 -18.73525 33965 ft 473 kts 274°
2026-05-06 21:30 52.90394 -18.84314 33967 ft 473 kts 274°
2026-05-06 21:30 52.91337 -18.95084 33973 ft 472 kts 274°
2026-05-06 21:31 52.92266 -19.05803 33968 ft 472 kts 274°
2026-05-06 21:31 52.93189 -19.16567 33970 ft 472 kts 273°
2026-05-06 21:32 52.94104 -19.27354 33972 ft 472 kts 273°
2026-05-06 21:32 52.95455 -19.43514 33974 ft 471 kts 273°
2026-05-06 21:33 52.96345 -19.54304 33970 ft 471 kts 273°
2026-05-06 21:33 52.97222 -19.65072 33972 ft 471 kts 273°
2026-05-06 21:34 52.98086 -19.75790 33973 ft 471 kts 272°
2026-05-06 21:34 52.98945 -19.86579 33972 ft 471 kts 272°
2026-05-06 21:35 52.99797 -19.97383 33979 ft 472 kts 272°
2026-05-06 21:35 53.00464 -20.08138 33975 ft 470 kts 269°
2026-05-06 21:36 53.00860 -20.18886 33978 ft 469 kts 268°
2026-05-06 21:36 53.01232 -20.29719 33980 ft 470 kts 269°
2026-05-06 21:37 53.01632 -20.40561 33977 ft 470 kts 269°
2026-05-06 21:37 53.02043 -20.51395 33982 ft 470 kts 269°
2026-05-06 21:38 53.02449 -20.62226 33980 ft 470 kts 269°
2026-05-06 21:38 53.02844 -20.73059 33980 ft 469 kts 269°
2026-05-06 21:39 53.03226 -20.83825 33986 ft 469 kts 269°
2026-05-06 21:39 53.03599 -20.94634 33984 ft 468 kts 269°
2026-05-06 21:40 53.03961 -21.05430 33983 ft 467 kts 269°
2026-05-06 21:40 53.04314 -21.16202 33986 ft 466 kts 269°
2026-05-06 21:41 53.04655 -21.26952 33987 ft 465 kts 269°
2026-05-06 21:41 53.04984 -21.37615 33987 ft 464 kts 269°
2026-05-06 21:42 53.05305 -21.48332 33990 ft 464 kts 269°
2026-05-06 21:42 53.05617 -21.59048 33990 ft 463 kts 269°
2026-05-06 21:43 53.05918 -21.69770 33991 ft 463 kts 269°
2026-05-06 21:43 53.06210 -21.80463 33995 ft 463 kts 269°
2026-05-06 21:44 53.06492 -21.91170 33995 ft 463 kts 269°
2026-05-06 21:44 53.06765 -22.01863 33992 ft 463 kts 269°
2026-05-06 21:45 53.07026 -22.12489 33992 ft 463 kts 269°
2026-05-06 21:45 53.07279 -22.23191 33996 ft 463 kts 269°
2026-05-06 21:46 53.07523 -22.33891 33988 ft 463 kts 269°
2026-05-06 21:46 53.07718 -22.42787 33998 ft 463 kts 269°
2026-05-06 21:47 53.07944 -22.53505 33996 ft 463 kts 269°
2026-05-06 21:47 53.08161 -22.64220 33996 ft 464 kts 269°
2026-05-06 21:48 53.08368 -22.74940 33995 ft 464 kts 269°
2026-05-06 21:48 53.08565 -22.85626 33996 ft 464 kts 269°
2026-05-06 21:49 53.08753 -22.96357 34001 ft 464 kts 269°
2026-05-06 21:49 53.08932 -23.07094 33998 ft 464 kts 269°
2026-05-06 21:50 53.09101 -23.17843 34002 ft 464 kts 269°
2026-05-06 21:50 53.09260 -23.28593 34005 ft 464 kts 269°
2026-05-06 21:51 53.09410 -23.39351 33991 ft 464 kts 268°
2026-05-06 21:51 53.09549 -23.50036 34000 ft 464 kts 268°
2026-05-06 21:52 53.09679 -23.60784 34012 ft 465 kts 268°
2026-05-06 21:52 53.09800 -23.71541 34010 ft 465 kts 268°
2026-05-06 21:53 53.09911 -23.82308 34002 ft 465 kts 268°
2026-05-06 21:53 53.10012 -23.93076 34012 ft 465 kts 268°
2026-05-06 21:54 53.10103 -24.03785 34003 ft 466 kts 268°
2026-05-06 21:54 53.10185 -24.14559 34012 ft 466 kts 268°
2026-05-06 21:55 53.10258 -24.25353 33999 ft 466 kts 268°
2026-05-06 21:55 53.10320 -24.36162 34006 ft 466 kts 268°
2026-05-06 21:56 53.10373 -24.46963 34006 ft 467 kts 268°
2026-05-06 21:56 53.10416 -24.57773 34004 ft 467 kts 268°
2026-05-06 21:57 53.10449 -24.68516 34017 ft 467 kts 268°
2026-05-06 21:57 53.10473 -24.79336 34013 ft 468 kts 268°
2026-05-06 21:58 53.10487 -24.90166 34005 ft 468 kts 268°
2026-05-06 21:58 53.10491 -25.01023 34011 ft 468 kts 268°
2026-05-06 21:59 53.10485 -25.11866 34021 ft 469 kts 268°
2026-05-06 21:59 53.10469 -25.22739 34018 ft 469 kts 268°
2026-05-06 22:00 53.10443 -25.33603 34018 ft 470 kts 268°
2026-05-06 22:00 53.10408 -25.44484 34014 ft 470 kts 268°
2026-05-06 22:01 53.10362 -25.55363 34020 ft 470 kts 268°
2026-05-06 22:01 53.10307 -25.66245 34013 ft 470 kts 268°
2026-05-06 22:02 53.10242 -25.77066 34011 ft 470 kts 268°
2026-05-06 22:02 53.10167 -25.87952 34010 ft 470 kts 268°
2026-05-06 22:03 53.10081 -25.98843 34021 ft 470 kts 268°
2026-05-06 22:03 53.09986 -26.09720 34009 ft 470 kts 268°
2026-05-06 22:04 53.09880 -26.20591 34020 ft 469 kts 268°
2026-05-06 22:04 53.09767 -26.31453 34011 ft 469 kts 268°
2026-05-06 22:05 53.09643 -26.42247 34021 ft 469 kts 268°
2026-05-06 22:05 53.09508 -26.53114 34007 ft 469 kts 268°
2026-05-06 22:06 53.09364 -26.63955 34025 ft 468 kts 268°
2026-05-06 22:06 53.09210 -26.74800 34015 ft 469 kts 268°
2026-05-06 22:07 53.09047 -26.85644 34022 ft 469 kts 268°
2026-05-06 22:07 53.08874 -26.96423 34014 ft 469 kts 268°
2026-05-06 22:08 53.08690 -27.07278 34020 ft 469 kts 268°
2026-05-06 22:08 53.08496 -27.18115 34007 ft 468 kts 268°
2026-05-06 22:09 53.08294 -27.28946 34023 ft 468 kts 268°
2026-05-06 22:09 53.08082 -27.39720 34010 ft 468 kts 268°
2026-05-06 22:10 53.07858 -27.50556 34019 ft 468 kts 268°
2026-05-06 22:10 53.07626 -27.61382 34016 ft 468 kts 268°
2026-05-06 22:11 53.07387 -27.72115 34026 ft 466 kts 268°
2026-05-06 22:11 53.07136 -27.82893 34005 ft 461 kts 268°
2026-05-06 22:12 53.06879 -27.93484 34020 ft 461 kts 268°
2026-05-06 22:12 53.06611 -28.04189 34018 ft 463 kts 268°
2026-05-06 22:13 53.06333 -28.14864 34023 ft 463 kts 268°
2026-05-06 22:13 53.06045 -28.25592 34011 ft 464 kts 268°
2026-05-06 22:14 53.05750 -28.36236 34029 ft 465 kts 268°
2026-05-06 22:14 53.05442 -28.47011 34012 ft 467 kts 268°
2026-05-06 22:15 53.05124 -28.57742 34022 ft 464 kts 268°
2026-05-06 22:15 53.04795 -28.68539 34016 ft 471 kts 268°
2026-05-06 22:16 53.04452 -28.79477 34028 ft 476 kts 268°
2026-05-06 22:16 53.04095 -28.90516 34018 ft 481 kts 268°
2026-05-06 22:17 53.03726 -29.01594 34016 ft 483 kts 268°
2026-05-06 22:17 53.03346 -29.12700 34006 ft 480 kts 267°
2026-05-06 22:18 53.02956 -29.23794 34018 ft 483 kts 267°
2026-05-06 22:18 53.02554 -29.34946 34002 ft 484 kts 267°
2026-05-06 22:19 53.02141 -29.46104 34030 ft 484 kts 267°
2026-05-06 22:19 53.01718 -29.57249 34002 ft 483 kts 267°
2026-05-06 22:20 53.01286 -29.68353 34015 ft 484 kts 266°
2026-05-06 22:20 53.00843 -29.79490 34013 ft 484 kts 266°
2026-05-06 22:21 53.00388 -29.90688 34006 ft 486 kts 266°
2026-05-06 22:21 52.99937 -30.01870 34002 ft 483 kts 268°
2026-05-06 22:22 52.99774 -30.13033 34007 ft 485 kts 270°
2026-05-06 22:22 52.99736 -30.24242 33996 ft 485 kts 270°
2026-05-06 22:23 52.99668 -30.35356 34007 ft 484 kts 269°
2026-05-06 22:23 52.99556 -30.46540 33995 ft 485 kts 269°
2026-05-06 22:24 52.99421 -30.57689 33995 ft 480 kts 269°
2026-05-06 22:24 52.99275 -30.68728 33995 ft 478 kts 269°
2026-05-06 22:25 52.99122 -30.79739 34014 ft 477 kts 269°
2026-05-06 22:25 52.98958 -30.90785 34003 ft 479 kts 268°
2026-05-06 22:26 52.98784 -31.01864 34018 ft 480 kts 268°
2026-05-06 22:26 52.98599 -31.12966 34008 ft 482 kts 268°
2026-05-06 22:27 52.98405 -31.24039 34019 ft 484 kts 268°
2026-05-06 22:27 52.98197 -31.35233 34014 ft 485 kts 268°
2026-05-06 22:28 52.97979 -31.46455 34024 ft 486 kts 268°
2026-05-06 22:28 52.97750 -31.57671 34009 ft 486 kts 267°
2026-05-06 22:29 52.97511 -31.68890 34031 ft 486 kts 267°
2026-05-06 22:29 52.97261 -31.80094 34018 ft 485 kts 267°
2026-05-06 22:30 52.97002 -31.91264 34025 ft 484 kts 267°
2026-05-06 22:30 52.96731 -32.02422 34248 ft 483 kts 271°
2026-05-06 22:31 52.96449 -32.13601 34117 ft 485 kts 270°
2026-05-06 22:31 52.96161 -32.24714 34033 ft 485 kts 270°
2026-05-06 22:32 52.95859 -32.35892 34035 ft 483 kts 270°
2026-05-06 22:32 52.95548 -32.47009 34032 ft 481 kts 270°
2026-05-06 22:33 52.95283 -32.56229 34039 ft 481 kts 270°
2026-05-06 22:33 52.94955 -32.67300 34044 ft 481 kts 270°
2026-05-06 22:34 52.94618 -32.78344 34049 ft 482 kts 270°
2026-05-06 22:34 52.94268 -32.89451 34051 ft 483 kts 270°
2026-05-06 22:35 52.93907 -33.00580 34056 ft 484 kts 270°
2026-05-06 22:35 52.93534 -33.11749 34054 ft 485 kts 270°
2026-05-06 22:36 52.93150 -33.22931 34060 ft 486 kts 270°
2026-05-06 22:36 52.92755 -33.34121 34065 ft 487 kts 270°
2026-05-06 22:37 52.92349 -33.45326 34068 ft 487 kts 270°
2026-05-06 22:37 52.91932 -33.56532 34072 ft 487 kts 270°
2026-05-06 22:38 52.91508 -33.67675 34077 ft 487 kts 270°
2026-05-06 22:38 52.91070 -33.78883 34080 ft 487 kts 270°
2026-05-06 22:39 52.90622 -33.90076 34084 ft 487 kts 270°
2026-05-06 22:39 52.90164 -34.01258 34084 ft 487 kts 270°
2026-05-06 22:40 52.89695 -34.12444 34092 ft 487 kts 270°
2026-05-06 22:40 52.89219 -34.23559 34093 ft 487 kts 270°
2026-05-06 22:41 52.88477 -34.40403 34098 ft 487 kts 270°
2026-05-06 22:42 52.87975 -34.51517 34101 ft 487 kts 270°
2026-05-06 22:42 52.87457 -34.62728 34100 ft 487 kts 270°
2026-05-06 22:43 52.86930 -34.73914 34100 ft 488 kts 270°
2026-05-06 22:43 52.86392 -34.85104 34101 ft 488 kts 270°
2026-05-06 22:44 52.85845 -34.96246 34106 ft 488 kts 270°
2026-05-06 22:44 52.85286 -35.07447 34107 ft 488 kts 270°
2026-05-06 22:45 52.84715 -35.18650 34112 ft 488 kts 270°
2026-05-06 22:45 52.84134 -35.29855 34116 ft 488 kts 270°
2026-05-06 22:46 52.83542 -35.41041 34123 ft 489 kts 270°
2026-05-06 22:46 52.82940 -35.52238 34127 ft 489 kts 270°
2026-05-06 22:47 52.82328 -35.63425 34130 ft 489 kts 270°
2026-05-06 22:47 52.81704 -35.74621 34132 ft 489 kts 270°
2026-05-06 22:48 52.81070 -35.85816 34123 ft 489 kts 270°
2026-05-06 22:48 52.80429 -35.96938 34131 ft 489 kts 270°
2026-05-06 22:49 52.79773 -36.08134 34134 ft 489 kts 270°
2026-05-06 22:49 52.79107 -36.19309 34138 ft 489 kts 270°
2026-05-06 22:50 52.78432 -36.30474 34144 ft 488 kts 271°
2026-05-06 22:50 52.77745 -36.41642 34142 ft 488 kts 271°
2026-05-06 22:51 52.77054 -36.52725 34143 ft 488 kts 271°
2026-05-06 22:51 52.76348 -36.63870 34151 ft 488 kts 271°
2026-05-06 22:52 52.75630 -36.75028 34150 ft 487 kts 271°
2026-05-06 22:52 52.74903 -36.86161 34161 ft 487 kts 271°
2026-05-06 22:53 52.74169 -36.97246 34160 ft 487 kts 271°
2026-05-06 22:53 52.73422 -37.08364 34157 ft 487 kts 271°